Regional Weather Roundup
Issued by NWS

Home | Current Version | Previous Version | Graphics & Text | Print | Product List | Glossary On
Versions: 1 2 3 4 5 6 7 8 9 10 11 12 13 14 15 16 17 18 19 20 21 22 23 24 25 26 27 28 29 30 31 32 33 34 35 36 37 38 39 40 41 42 43 44 45 46 47 48 49 50
000
ASUS43 KLOT 022000
RWRIL

ILLINOIS REGIONAL WEATHER ROUNDUP
NATIONAL WEATHER SERVICE CHICAGO/ROMEOVILLE IL
300 PM CDT THU JUL 02 2015

NOTE: "FAIR" INDICATES FEW OR NO CLOUDS BELOW 12,000 FEET WITH NO
SIGNIFICANT WEATHER AND/OR OBSTRUCTIONS TO VISIBILITY.

* THESE STATIONS ARE NOT UNDER NWS QUALITY CONTROL. THEY ALSO MAY NOT
  REPORT WEATHER SUCH AS PRECIPITATION OR FOG.

ILZ001-002-007-009-015-016-024-022100-
NORTHWEST ILLINOIS

CITY           SKY/WX    TMP DP  RH WIND       PRES   REMARKS
MOLINE         MOSUNNY   72  55  55 E15       29.97F
STERLING*      PTSUNNY   70  57  64 E12G18    29.98F
$$

ILZ003-004-008-010-011-017-018-022100-
NORTH CENTRAL ILLINOIS

CITY           SKY/WX    TMP DP  RH WIND       PRES   REMARKS
ROCKFORD       CLOUDY    73  53  49 E12       30.01S
$$

ILZ005-006-012>014-019>023-022100-
NORTHEAST ILLINOIS

CITY           SKY/WX    TMP DP  RH WIND       PRES   REMARKS
CHICAGO-OHARE  PTSUNNY   67  53  61 NE14      29.99F
CHICAGO-MIDWAY PTSUNNY   70  56  61 NE13      29.98F
AURORA         PTSUNNY   72  55  55 NE13G21   29.98F
WAUKEGAN       MOSUNNY   63  53  70 N12       30.01S
DUPAGE AIRPORT PTSUNNY   70  54  56 NE10      29.98F
WHEELING       MOSUNNY   65  51  60 NE14      30.02F
NORTHERLY ISL    N/A     60  54  80 N17         N/A
$$

LMZ740>746-022100-
SOUTHERN LAKE MICHIGAN

STATION/POSITION SKY/WX   TEMP    WIND        PRES    VSBY  WAVE
                          AIR SEA DIR/SP/G                  HT/PER
                          (F)     (DEG/KT/KT) (MB)    (MI)  (FT/S)
HARRISON CRIB              57     360/ 17/ 18   N/A
BURNHAM HARBOR             61     340/ 12/ 16   N/A
CALUMET HARBOR             61     350/ 13/ 19   N/A
BURNS HARBOR               61      10/ 15/ 17 1015.9S
MICHIGAN CITY              62     350/ 17/ 18   N/A
MICHIGAN CITY 6N           62 65   20/ 14/ 19   N/A           4/ 4
ST. JOSEPH                 62 63                N/A           3/ 4
$$

ILZ025>027-034>036-040-047-049-050-058-095>099-022100-
WEST-CENTRAL ILLINOIS

CITY           SKY/WX    TMP DP  RH WIND       PRES   REMARKS
QUINCY         CLOUDY    71  58  63 NE8       29.95R
$$

ILZ028>032-037-038-041>044-048-051>054-059>061-022100-
CENTRAL ILLINOIS

CITY           SKY/WX    TMP DP  RH WIND       PRES   REMARKS
DECATUR        CLOUDY    74  59  59 NE7       29.92F
PEORIA         PTSUNNY   75  58  55 NE9       29.95F
SPRINGFIELD    CLOUDY    72  60  66 NE9       29.93F
TAYLORVILLE    NOT AVBL
$$

ILZ033-039-045-046-055>057-062-063-022100-
EAST-CENTRAL ILLINOIS

CITY           SKY/WX    TMP DP  RH WIND       PRES   REMARKS
CHAMPAIGN      PTSUNNY   75  60  59 VRB6      29.93R
MATTOON        CLOUDY    76  65  68 N10       29.89S
$$

ILZ079-100>102-022100-
SOUTHWEST ILLINOIS

CITY           SKY/WX    TMP DP  RH WIND       PRES   REMARKS
ALTON          PTSUNNY   77  70  78 NE9       29.91S
BELLEVILLE     PTSUNNY   77  69  76 VRB6      29.88F
CAHOKIA*       MOSUNNY   78  66  66 NE7       29.89F HX  80
$$

ILZ064>066-069>071-074>076-080>082-084>086-088>090-092>094-022100-
SOUTH-CENTRAL ILLINOIS

CITY           SKY/WX    TMP DP  RH WIND       PRES   REMARKS
CARBONDALE     CLOUDY    79  70  74 N9        29.86S HX  82
MARION         PTSUNNY   79  73  83 NW12      29.87  HX  82
MT. VERNON     CLOUDY    70  64  83 N7        29.89S
$$

ILZ067-068-072-073-078-083-087-091-022100-
SOUTHEAST ILLINOIS

CITY           SKY/WX    TMP DP  RH WIND       PRES   REMARKS
LAWRENCEVILLE  CLOUDY    75  68  78 CALM      29.87F
$$

ABBREVIATIONS USED IN REMARKS
   TC - TEMPERATURE IN CELSIUS
  WCI - WIND CHILL INDEX
   HX - HEAT INDEX
  VSB - VISIBILITY
$$




USA.gov is the U.S. government's official web portal to all federal, state and local government web resources and services.